This is the latest recevied weather packets stored in our database for station/object KC0QBU-13. If no packets are shown the sender has not sent any weather packets the latest 10 day(s).
| Time | Temp. | Humidity | Pressure | Rain* | Wind** | Luminosity | Snow |
|---|---|---|---|---|---|---|---|
| 1777818903 | 16.11° C | 52% | 1014.9 hPa | 0 mm | - | - | - |
| 1777817403 | 14.44° C | 51% | 1015.2 hPa | 0 mm | - | - | - |
| 1777816503 | 13.89° C | 52% | 1015.4 hPa | 0 mm | - | - | - |
| 1777816203 | 13.89° C | 52% | 1015.4 hPa | 0 mm | - | - | - |
| 1777815604 | 13.89° C | 51% | 1015.5 hPa | 0 mm | - | - | - |
| 1777811103 | 11.11° C | 52% | 1015.6 hPa | 0 mm | - | - | - |
| 1777810503 | 11.11° C | 52% | 1015.5 hPa | 0 mm | - | - | - |
| 1777809903 | 11.11° C | 51% | 1015.7 hPa | 0 mm | - | - | - |
| 1777806904 | 10.56° C | 50% | 1015.7 hPa | 0 mm | - | - | - |
| 1777806303 | 10.56° C | 50% | 1015.6 hPa | 0 mm | - | - | - |
| 1777803903 | 10.56° C | 52% | 1015.8 hPa | 0 mm | - | - | - |
| 1777803303 | 10° C | 53% | 1016 hPa | 0 mm | - | - | - |
| 1777800903 | 9.44° C | 56% | 1016.3 hPa | 0 mm | - | - | - |
| 1777799404 | 10° C | 56% | 1016.7 hPa | 0 mm | - | - | - |
| 1777798504 | 10° C | 56% | 1016.7 hPa | 0 mm | - | - | - |
| 1777797603 | 10° C | 54% | 1016.7 hPa | 0 mm | - | - | - |
| 1777795803 | 10° C | 53% | 1016.9 hPa | 0 mm | - | - | - |
| 1777794303 | 10° C | 53% | 1016.9 hPa | 0 mm | - | - | - |
| 1777794003 | 10° C | 54% | 1017 hPa | 0 mm | - | - | - |
| 1777792804 | 10° C | 53% | 1017.2 hPa | 0 mm | - | - | - |
| 1777791004 | 10.56° C | 53% | 1017.4 hPa | 0 mm | - | - | - |
| 1777788003 | 10.56° C | 51% | 1017.9 hPa | 0 mm | - | - | - |
| 1777787103 | 11.11° C | 51% | 1018 hPa | 0 mm | - | - | - |
| 1777786204 | 11.11° C | 50% | 1018.1 hPa | 0 mm | - | - | - |
| 1777785904 | 11.11° C | 50% | 1018.1 hPa | 0 mm | - | - | - |
* Rain latest hour (hover to see other rain measurements)
** Current wind speed in m/s (hover to see current wind gust speed)